Tracking 18980 objects as of 22-Feb-2018
HD Live streaming from Space Station
objects crossing your sky now

FENGYUN 1C DEB

Track FENGYUN 1C DEB now!
10-day predictions


NORAD ID: 31474
Int'l Code: 1999-025BVN
Perigee: 839.0 km
Apogee: 952.6 km
Inclination: 99.1 °
Period: 102.7 minutes
Semi major axis: 7266 km
RCS: 0.0133 m2 (small)
Launch date: May 10, 1999
Source: People's Republic of China (PRC)
Launch site: Taiyaun Space Center, China (TSC)

Note: This is SATELLITE DEBRIS
aabbcc
Your satellite tracking list
Your tracking list is empty




NASA's NSSDC Master Catalog

Two Line Element Set (TLE):
1 31474U 99025BVN 18052.11750464 +.00000264 +00000-0 +19925-3 0  9999
2 31474 099.1485 028.6702 0078224 172.2136 188.0263 14.01484377549529
Source of the keplerian elements: AFSPC